Terminal Aerodrome Forecast
Issued by NWS

Home | Current Version | Previous Version | Text Only | Print | Product List | Glossary Off
Versions: 1 2 3 4 5 6 7 8 9 10 11 12 13 14 15 16 17 18 19 20 21 22 23 24 25 26 27 28 29 30 31 32 33 34 35 36 37 38 39 40 41 42 43 44 45 46 47 48 49 50

000
FTUS43 KLOT 280520
TAFGYY
TAF
KGYY 280520Z 2806/2906 02008KT P6SM BKN013 OVC018
     FM280700 02012KT 6SM BR OVC007
     FM281600 01012KT P6SM OVC012
     FM282100 01011KT P6SM BKN020=

USA.gov is the U.S. government's official web portal to all federal, state and local government web resources and services.